W8AN Weather Reports


time (UTC)temp
C
wind
direction
speed
KPH
gust
KPH
rain 1hr
cm
rain 24hr
cm
rain mn
cm
humidity
%
barometer
mb
20260508185503 12 214 16.1 20.9 0.18 0.05 0.05 81 4265.3
20260508185000 12 221 8.0 9.7 0.00 0.03 0.03 80 4265.4
20260508184458 12 234 11.3 12.9 0.00 0.03 0.03 80 4265.5
20260508183954 12 237 14.5 20.9 0.00 0.03 0.03 78 4265.5
20260508183450 12 235 9.7 12.9 0.00 0.03 0.03 78 4265.4
20260508182946 13 232 9.7 11.3 0.00 0.03 0.03 77 4265.5
20260508182443 13 262 11.3 16.1 0.00 0.03 0.03 74 4265.5
20260508181938 13 237 11.3 16.1 0.00 0.03 0.03 73 4265.7
20260508181435 13 239 14.5 20.9 0.00 0.03 0.03 72 4265.5
20260508180933 13 206 11.3 14.5 0.00 0.03 0.03 72 4265.6
20260508180429 14 223 12.9 14.5 0.00 0.03 0.03 70 4266.0
20260508175925 14 244 9.7 14.5 0.00 0.03 0.03 70 4265.8
20260508175422 13 198 9.7 11.3 0.00 0.03 0.03 70 4265.5
20260508174920 13 246 9.7 11.3 0.00 0.03 0.03 70 4265.8
20260508174417 13 237 11.3 12.9 0.00 0.03 0.03 69 4265.9
20260508173913 13 202 12.9 14.5 0.00 0.03 0.03 70 4265.9
20260508173411 13 233 9.7 16.1 0.00 0.03 0.03 70 4266.3
20260508172906 13 240 11.3 14.5 0.00 0.03 0.03 70 4265.9
20260508172404 13 252 11.3 14.5 0.00 0.03 0.03 71 4265.9
20260508171900 13 232 19.3 22.5 0.00 0.03 0.03 71 4266.2
20260508171356 13 226 14.5 14.5 0.00 0.03 0.03 72 4266.3
20260508170853 13 233 14.5 20.9 0.00 0.03 0.03 70 4266.3
20260508170351 14 267 9.7 14.5 0.00 0.03 0.03 72 4266.5
20260508165847 13 213 12.9 16.1 0.00 0.03 0.03 72 4266.5
20260508165345 13 221 0.0 0.0 0.00 0.03 0.03 71 4266.6
20260508164841 13 219 16.1 17.7 0.00 0.03 0.03 72 4266.5
20260508164338 13 229 14.5 16.1 0.00 0.03 0.03 72 4266.4
20260508163836 13 233 14.5 16.1 0.00 0.03 0.03 71 4266.4
20260508163334 13 226 14.5 16.1 0.00 0.03 0.03 73 4266.8
20260508162829 12 260 8.0 9.7 0.00 0.03 0.03 76 4266.9
20260508162326 12 212 17.7 22.5 0.00 0.03 0.03 76 4267.1
20260508161823 12 246 11.3 12.9 0.00 0.03 0.03 77 4266.9
20260508161320 12 230 0.0 0.0 0.00 0.03 0.03 78 4267.0
20260508160818 12 257 8.0 11.3 0.00 0.03 0.03 77 4267.2
20260508160316 12 247 9.7 14.5 0.00 0.03 0.03 75 4267.4
20260508155812 12 209 14.5 17.7 0.00 0.03 0.03 75 4267.4
20260508155309 12 276 11.3 17.7 0.00 0.03 0.03 74 4267.2
20260508154806 12 236 4.8 11.3 0.00 0.03 0.03 75 4267.2
20260508154304 12 242 4.8 9.7 0.00 0.03 0.03 74 4267.3
20260508153800 12 259 0.0 0.0 0.00 0.03 0.03 74 4267.2
20260508153258 12 243 11.3 14.5 0.00 0.03 0.03 74 4267.2
20260508152754 12 247 11.3 16.1 0.00 0.03 0.03 73 4267.2
20260508152250 12 255 9.7 11.3 0.00 0.03 0.03 74 4267.1
20260508151746 11 269 9.7 11.3 0.00 0.03 0.03 74 4267.3
20260508151243 11 304 11.3 14.5 0.00 0.03 0.03 73 4267.3
20260508150740 11 251 8.0 11.3 0.00 0.03 0.03 74 4267.5
20260508150237 11 239 12.9 16.1 0.00 0.03 0.03 74 4267.2
20260508145732 11 278 12.9 17.7 0.00 0.03 0.03 74 4267.0
20260508145229 12 254 12.9 16.1 0.00 0.03 0.03 73 4267.4
20260508144726 11 242 9.7 12.9 0.00 0.03 0.03 73 4267.3
20260508144224 12 250 8.0 9.7 0.00 0.03 0.03 74 4267.0
20260508143721 12 231 11.3 12.9 0.00 0.03 0.03 74 4267.3
20260508143218 12 236 16.1 17.7 0.00 0.03 0.03 73 4267.4
20260508142714 11 243 11.3 12.9 0.00 0.03 0.03 74 4267.2
20260508142211 11 258 12.9 16.1 0.00 0.03 0.03 73 4267.2
20260508141708 11 222 11.3 12.9 0.00 0.03 0.03 73 4267.3
20260508141205 11 237 11.3 14.5 0.00 0.03 0.03 74 4267.4
20260508140703 11 280 9.7 11.3 0.00 0.03 0.03 75 4267.1
20260508140159 11 241 9.7 11.3 0.00 0.03 0.03 75 4267.3
20260508135656 11 268 8.0 9.7 0.00 0.03 0.03 74 4267.0
20260508135151 11 218 11.3 12.9 0.00 0.03 0.03 75 4267.4
20260508134647 11 240 11.3 14.5 0.00 0.03 0.03 75 4267.0
20260508134145 11 252 8.0 9.7 0.00 0.03 0.03 75 4267.1
20260508133642 11 253 8.0 9.7 0.00 0.03 0.03 75 4267.3
20260508133139 11 222 12.9 14.5 0.00 0.03 0.03 75 4267.4
20260508132637 11 269 4.8 4.8 0.00 0.03 0.03 76 4267.4
20260508132133 11 271 9.7 12.9 0.00 0.03 0.03 75 4267.3
20260508131629 11 228 8.0 9.7 0.00 0.03 0.03 76 4267.2
20260508131126 10 261 12.9 14.5 0.00 0.03 0.03 75 4267.3
20260508130622 10 264 11.3 12.9 0.00 0.03 0.03 76 4267.3
20260508130119 10 259 8.0 9.7 0.00 0.03 0.03 76 4267.3
20260508125620 10 265 11.3 11.3 0.00 0.03 0.03 76 4267.2
20260508125118 10 269 12.9 14.5 0.00 0.03 0.03 76 4267.3
20260508124616 10 213 11.3 11.3 0.00 0.03 0.03 76 4267.3
20260508124112 10 270 9.7 11.3 0.00 0.03 0.03 76 4267.0
20260508123611 10 216 9.7 12.9 0.00 0.03 0.03 76 4267.2
20260508123108 10 217 8.0 11.3 0.00 0.03 0.03 75 4267.1
20260508122604 10 225 11.3 12.9 0.00 0.03 0.03 76 4267.4
20260508122101 10 270 1.6 4.8 0.00 0.03 0.03 77 4267.4
20260508121559 9 241 4.8 9.7 0.00 0.03 0.03 76 4267.3
20260508121057 9 246 11.3 14.5 0.00 0.03 0.03 77 4267.4
20260508120554 9 250 3.2 8.0 0.00 0.03 0.03 77 4267.0
20260508120053 9 273 9.7 12.9 0.00 0.03 0.03 76 4267.2
20260508115549 8 247 8.0 11.3 0.00 0.03 0.03 77 4267.2
20260508115046 8 231 12.9 16.1 0.00 0.03 0.03 77 4267.0
20260508114543 8 226 11.3 14.5 0.00 0.03 0.03 78 4267.2
20260508114039 8 240 8.0 9.7 0.00 0.03 0.03 78 4267.0
20260508113537 8 241 11.3 12.9 0.00 0.03 0.03 78 4267.2
20260508113035 8 252 11.3 11.3 0.00 0.03 0.03 78 4266.7
20260508112531 8 234 6.4 9.7 0.00 0.03 0.03 78 4266.8
20260508112028 7 259 4.8 4.8 0.00 0.03 0.03 79 4266.7
20260508111525 7 261 0.0 0.0 0.00 0.03 0.03 79 4266.8
20260508111021 7 242 0.0 0.0 0.00 0.03 0.03 80 4266.8
20260508110520 7 272 0.0 0.0 0.00 0.03 0.03 79 4266.7
20260508110015 7 272 0.0 1.6 0.00 0.03 0.03 80 4266.5
20260508105510 7 244 0.0 0.0 0.00 0.03 0.03 80 4266.6
20260508105008 7 231 0.0 0.0 0.00 0.03 0.03 80 4266.7
20260508104506 7 237 0.0 0.0 0.00 0.03 0.03 80 4266.9
20260508104002 7 234 0.0 0.0 0.00 0.03 0.03 81 4266.5
20260508103459 7 234 0.0 0.0 0.00 0.03 0.03 81 4266.3
20260508102955 7 237 0.0 0.0 0.00 0.03 0.03 81 4266.5
20260508102454 7 223 1.6 3.2 0.00 0.03 0.03 81 4266.5
20260508101951 7 238 0.0 0.0 0.00 0.03 0.03 81 4266.7
20260508101449 7 248 0.0 0.0 0.00 0.03 0.03 81 4266.3
20260508100945 7 219 0.0 0.0 0.00 0.03 0.03 81 4266.5
20260508100444 7 246 0.0 0.0 0.00 0.03 0.03 81 4266.3
20260508095940 7 257 0.0 0.0 0.00 0.03 0.03 81 4266.5
20260508095438 7 238 0.0 0.0 0.00 0.03 0.03 80 4266.4
20260508094934 7 229 0.0 0.0 0.00 0.03 0.03 80 4266.5
20260508094431 7 234 0.0 0.0 0.00 0.03 0.03 80 4266.6
20260508093928 7 243 0.0 0.0 0.00 0.03 0.03 80 4266.6
20260508093426 7 225 0.0 0.0 0.00 0.03 0.03 80 4266.5
20260508092923 7 222 0.0 0.0 0.00 0.03 0.03 81 4266.6
20260508092421 7 277 0.0 0.0 0.00 0.03 0.03 82 4266.6
20260508091919 7 230 0.0 0.0 0.00 0.03 0.03 83 4266.7
20260508091415 7 270 0.0 0.0 0.00 0.03 0.03 83 4266.4
20260508090913 7 271 0.0 0.0 0.00 0.03 0.03 83 4266.7
20260508090411 7 251 0.0 0.0 0.00 0.03 0.03 82 4266.7
20260508085906 7 255 0.0 0.0 0.00 0.03 0.03 82 4266.5
20260508085403 7 242 0.0 0.0 0.00 0.03 0.03 82 4266.7
20260508084900 7 273 0.0 0.0 0.00 0.03 0.03 82 4266.7
20260508084356 7 269 0.0 0.0 0.00 0.03 0.03 82 4266.6
20260508083854 7 282 0.0 0.0 0.00 0.03 0.03 81 4266.6
20260508083352 7 282 0.0 0.0 0.00 0.03 0.03 81 4266.6
20260508082851 7 278 0.0 0.0 0.00 0.03 0.03 80 4267.0
20260508082349 7 281 0.0 0.0 0.00 0.03 0.03 80 4266.7
20260508081846 7 247 0.0 0.0 0.00 0.03 0.03 81 4266.7
20260508081343 7 264 0.0 0.0 0.00 0.03 0.03 81 4266.8
20260508080840 7 243 0.0 0.0 0.00 0.03 0.03 81 4266.5
20260508080338 7 219 0.0 0.0 0.00 0.03 0.03 80 4266.9
20260508075834 7 210 8.0 9.7 0.00 0.03 0.03 81 4266.9
20260508075331 7 218 0.0 0.0 0.00 0.03 0.03 81 4266.6
20260508074829 7 237 8.0 8.0 0.00 0.03 0.03 81 4266.8
20260508074326 7 216 0.0 0.0 0.00 0.03 0.03 81 4266.9
20260508073823 7 250 0.0 3.2 0.00 0.03 0.03 81 4266.6
20260508073321 7 210 8.0 9.7 0.00 0.03 0.03 81 4266.8
20260508072817 7 242 0.0 0.0 0.00 0.03 0.03 82 4266.8
20260508072314 7 247 4.8 4.8 0.00 0.03 0.03 81 4266.7
20260508071811 7 280 6.4 9.7 0.00 0.03 0.03 82 4266.9
20260508071309 7 235 6.4 8.0 0.00 0.03 0.03 82 4266.7
20260508070806 7 231 6.4 8.0 0.00 0.03 0.03 82 4266.9
20260508070305 7 228 8.0 11.3 0.00 0.03 0.03 82 4266.9
20260508065802 7 210 8.0 9.7 0.00 0.03 0.03 82 4267.1
20260508065259 7 229 8.0 11.3 0.13 0.03 0.03 83 4266.8
20260508064758 7 257 4.8 4.8 0.13 0.03 0.03 82 4266.7
20260508064255 7 250 0.0 0.0 0.00 0.00 0.00 82 4267.0
20260508063752 7 247 0.0 0.0 0.00 0.00 0.00 82 4267.1
20260508063250 7 243 0.0 0.0 0.00 0.00 0.00 82 4267.1
20260508062747 7 232 6.4 8.0 0.00 0.00 0.00 82 4266.8
20260508062245 7 225 0.0 0.0 0.00 0.00 0.00 82 4267.0
20260508061741 7 231 6.4 8.0 0.00 0.00 0.00 82 4267.2
20260508061238 7 228 8.0 9.7 0.00 0.00 0.00 81 4267.3
20260508060735 7 228 6.4 8.0 0.00 0.00 0.00 81 4267.2
20260508060233 7 219 12.9 16.1 0.00 0.00 0.00 81 4267.2
20260508055728 7 238 4.8 4.8 0.00 0.00 0.00 80 4267.4
20260508055225 7 255 6.4 8.0 0.00 0.00 0.00 80 4267.4
20260508054721 7 252 6.4 8.0 0.00 0.00 0.00 80 4267.4
20260508054220 7 234 8.0 9.7 0.00 0.00 0.00 80 4267.4
20260508053716 7 225 6.4 9.7 0.00 0.00 0.00 79 4267.6
20260508053214 7 235 4.8 4.8 0.00 0.00 0.00 79 4267.6
20260508052711 8 230 6.4 8.0 0.00 0.00 0.00 78 4267.4
20260508052208 8 222 8.0 11.3 0.00 0.00 0.00 78 4267.5
20260508051704 8 269 6.4 8.0 0.00 0.00 0.00 77 4267.6
20260508051159 8 234 12.9 14.5 0.00 0.00 0.00 77 4267.7
20260508050656 8 223 12.9 14.5 0.00 0.00 0.00 77 4267.8
20260508050154 8 211 11.3 16.1 0.00 0.00 0.00 78 4267.6
20260508045649 8 216 16.1 17.7 0.00 0.00 0.00 78 4267.4
20260508045147 8 231 11.3 12.9 0.00 0.00 0.00 78 4267.1
20260508044644 8 237 11.3 17.7 0.00 0.00 0.00 78 4267.2
20260508044140 8 226 14.5 16.1 0.00 0.00 0.00 78 4267.1
20260508043637 8 293 12.9 16.1 0.00 0.00 0.00 79 4267.0
20260508043135 8 206 11.3 12.9 0.00 0.00 0.00 79 4267.2
20260508042631 8 219 14.5 17.7 0.00 0.00 0.00 78 4267.5
20260508042128 8 202 20.9 25.7 0.00 0.00 0.00 76 4267.7
20260508041624 8 228 17.7 24.1 0.00 0.00 0.00 75 4267.9
20260508041121 9 224 20.9 24.1 0.00 0.00 0.00 72 4267.8
20260508040618 8 218 20.9 29.0 0.00 0.00 0.00 76 4267.7
20260508040116 8 226 0.0 0.0 0.00 0.00 0.00 76 4267.9
20260508035613 8 221 6.4 8.0 0.00 0.00 0.00 73 4267.7
20260508035110 8 243 0.0 0.0 0.00 0.00 0.00 76 4267.6
20260508034606 8 235 0.0 0.0 0.00 0.00 0.00 78 4267.5
20260508034104 8 283 0.0 0.0 0.00 0.00 0.00 78 4267.4
20260508033601 8 281 0.0 0.0 0.00 0.00 0.00 78 4267.5
20260508033059 7 281 0.0 0.0 0.00 0.00 0.00 79 4267.7
20260508032555 7 283 0.0 0.0 0.00 0.00 0.00 78 4267.5
20260508032053 7 284 0.0 0.0 0.00 0.00 0.00 78 4267.4
20260508031550 8 284 0.0 0.0 0.00 0.00 0.00 78 4267.6
20260508031046 8 284 0.0 0.0 0.00 0.00 0.00 77 4267.7
20260508030542 8 283 0.0 0.0 0.00 0.00 0.00 77 4267.7
20260508030041 8 284 0.0 0.0 0.00 0.00 0.00 77 4267.8
20260508025536 8 282 0.0 0.0 0.00 0.00 0.00 76 4267.7
20260508025034 8 281 0.0 0.0 0.00 0.00 0.00 74 4268.0
20260508024529 8 277 0.0 0.0 0.00 0.00 0.00 74 4267.8
20260508024027 8 274 0.0 0.0 0.00 0.00 0.00 73 4267.8
20260508023523 8 265 0.0 0.0 0.00 0.00 0.00 72 4267.9
20260508023021 8 275 0.0 0.0 0.00 0.00 0.00 72 4267.9
20260508022516 8 274 0.0 0.0 0.00 0.00 0.00 72 4267.8
20260508022013 9 271 0.0 0.0 0.00 0.00 0.00 71 4267.7
20260508021509 9 221 4.8 4.8 0.00 0.00 0.00 70 4267.7
20260508021005 9 203 4.8 4.8 0.00 0.00 0.00 70 4267.8
20260508020503 9 259 0.0 0.0 0.00 0.00 0.00 69 4267.9
20260508020000 9 244 3.2 9.7 0.00 0.00 0.00 71 4267.9
20260508015458 9 263 0.0 0.0 0.00 0.00 0.00 72 4267.7
20260508014954 8 269 0.0 0.0 0.00 0.00 0.00 72 4267.7
20260508014451 8 264 3.2 3.2 0.00 0.00 0.00 71 4267.7
20260508013947 9 252 0.0 0.0 0.00 0.00 0.00 72 4267.7
20260508013443 9 237 3.2 3.2 0.00 0.00 0.00 70 4267.8
20260508012941 9 244 0.0 0.0 0.00 0.00 0.00 68 4267.7
20260508012437 9 235 4.8 4.8 0.00 0.00 0.00 67 4267.7
20260508011935 10 211 6.4 9.7 0.00 0.00 0.00 66 4267.6
20260508011434 10 234 14.5 16.1 0.00 0.00 0.00 64 4267.8
20260508010930 10 259 6.4 9.7 0.00 0.00 0.00 63 4267.6
20260508010427 10 236 11.3 16.1 0.00 0.00 0.00 61 4267.6
20260508005924 10 217 12.9 14.5 0.00 0.00 0.00 60 4267.9
20260508005421 10 247 14.5 16.1 0.00 0.00 0.00 60 4267.9
20260508004917 10 230 14.5 14.5 0.00 0.00 0.00 58 4267.8
20260508004414 11 242 14.5 17.7 0.00 0.00 0.00 57 4267.6
20260508003910 11 245 14.5 14.5 0.00 0.00 0.00 56 4267.8
20260508003407 11 252 19.3 24.1 0.00 0.00 0.00 53 4267.6
20260508002904 11 259 19.3 22.5 0.00 0.00 0.00 53 4267.5
20260508002401 11 218 20.9 27.4 0.00 0.00 0.00 52 4267.5
20260508001857 12 203 16.1 20.9 0.00 0.00 0.00 49 4267.4
20260508001353 12 247 27.4 35.4 0.00 0.00 0.00 49 4267.4
20260508000850 12 251 29.0 37.0 0.00 0.00 0.00 47 4267.2
20260508000346 12 218 17.7 20.9 0.00 0.00 0.00 46 4267.2
20260507235843 12 241 22.5 25.7 0.00 0.00 0.00 46 4267.3
20260507235340 12 229 22.5 27.4 0.00 0.00 0.00 43 4267.1
20260507234837 12 237 22.5 32.2 0.00 0.00 0.00 43 4267.2
20260507234334 13 273 16.1 20.9 0.00 0.00 0.00 40 4266.8
20260507233830 13 246 19.3 25.7 0.00 0.00 0.00 38 4267.0
20260507233328 13 233 19.3 22.5 0.00 0.00 0.00 38 4266.8
20260507232826 13 267 9.7 11.3 0.00 0.00 0.00 38 4266.8
20260507232322 13 263 14.5 20.9 0.00 0.00 0.00 39 4266.7
20260507231819 13 257 14.5 17.7 0.00 0.00 0.00 37 4266.7
20260507231316 13 262 9.7 11.3 0.00 0.00 0.00 40 4266.8
20260507230812 13 256 9.7 12.9 0.00 0.00 0.00 37 4266.8
20260507230309 13 264 11.3 11.3 0.00 0.00 0.00 37 4266.8
20260507225804 13 253 16.1 20.9 0.00 0.00 0.00 36 4266.7
20260507225300 13 266 11.3 12.9 0.00 0.00 0.00 35 4266.7
20260507224756 13 235 12.9 14.5 0.00 0.00 0.00 35 4266.8
20260507224253 13 252 6.4 8.0 0.00 0.00 0.00 38 4266.9
20260507223750 13 257 14.5 20.9 0.00 0.00 0.00 35 4266.8
20260507223246 13 253 11.3 12.9 0.00 0.00 0.00 36 4267.0
20260507222743 14 271 11.3 12.9 0.00 0.00 0.00 35 4266.8
20260507222239 14 275 12.9 16.1 0.00 0.00 0.00 34 4266.9
20260507221736 14 256 14.5 16.1 0.00 0.00 0.00 35 4266.9
20260507221232 14 274 16.1 20.9 0.00 0.00 0.00 33 4267.0
20260507220729 15 257 19.3 24.1 0.00 0.00 0.00 31 4266.7
20260507220228 15 315 14.5 17.7 0.00 0.00 0.00 34 4266.7
20260507215723 15 229 12.9 16.1 0.00 0.00 0.00 34 4266.8
20260507215221 15 254 11.3 14.5 0.00 0.00 0.00 32 4266.9
20260507214718 15 291 20.9 24.1 0.00 0.00 0.00 33 4266.8
20260507214215 15 249 27.4 32.2 0.00 0.00 0.00 32 4266.9
20260507213710 15 245 12.9 16.1 0.00 0.00 0.00 33 4266.7
20260507213208 15 265 16.1 17.7 0.00 0.00 0.00 34 4266.8
20260507212704 15 292 17.7 20.9 0.00 0.00 0.00 33 4266.7
20260507212200 14 317 16.1 20.9 0.00 0.00 0.00 34 4266.5
20260507211657 13 329 12.9 16.1 0.00 0.00 0.00 35 4266.8
20260507211153 14 328 24.1 25.7 0.00 0.00 0.00 36 4266.8
20260507210650 14 307 9.7 12.9 0.00 0.00 0.00 36 4266.9
20260507210147 13 301 12.9 14.5 0.00 0.00 0.00 38 4267.0
20260507205643 13 307 17.7 22.5 0.00 0.00 0.00 38 4267.0
20260507205140 13 318 22.5 29.0 0.00 0.00 0.00 37 4267.1
20260507204636 13 250 19.3 24.1 0.00 0.00 0.00 36 4267.0
20260507204134 15 256 14.5 14.5 0.00 0.00 0.00 37 4267.0
20260507203632 13 331 14.5 16.1 0.00 0.00 0.00 37 4267.1
20260507203129 13 345 19.3 24.1 0.00 0.00 0.00 37 4267.1
20260507202625 13 307 14.5 20.9 0.00 0.00 0.00 38 4267.1
20260507202121 13 321 20.9 27.4 0.00 0.00 0.00 38 4267.2
20260507201616 13 291 16.1 22.5 0.00 0.00 0.00 38 4267.1
20260507201114 14 332 14.5 22.5 0.00 0.00 0.00 36 4267.3
20260507200609 14 314 17.7 20.9 0.00 0.00 0.00 38 4267.3
20260507200105 14 252 19.3 25.7 0.00 0.00 0.00 37 4267.2
20260507195603 13 305 25.7 32.2 0.00 0.00 0.00 39 4267.1
20260507195100 13 339 19.3 29.0 0.00 0.00 0.00 38 4267.0
20260507194556 13 332 37.0 41.8 0.00 0.00 0.00 38 4267.2
20260507194052 13 308 19.3 25.7 0.00 0.00 0.00 38 4267.2
20260507193549 13 297 20.9 24.1 0.00 0.00 0.00 39 4267.4
20260507193046 13 307 17.7 24.1 0.00 0.00 0.00 39 4267.2
20260507192542 13 317 16.1 32.2 0.00 0.00 0.00 38 4267.3
20260507192039 14 284 20.9 24.1 0.00 0.00 0.00 37 4267.6
20260507191535 14 342 27.4 40.2 0.00 0.00 0.00 38 4267.3
20260507191032 13 251 35.4 40.2 0.00 0.00 0.00 37 4267.2
20260507190529 13 324 24.1 27.4 0.00 0.00 0.00 38 4267.2
20260507190028 13 305 24.1 29.0 0.00 0.00 0.00 39 4267.4
20260507185526 13 340 32.2 37.0 0.00 0.00 0.00 38 4267.5